Find Starlink 32631

NORAD ID: 62235 Int'l Des: 2024-231 Owner: SPXS Country: US Constellation: starlink operational
LEOCIRCULAR

現在のビュー

3D地球を読み込み中...

About Starlink 32631

Starlink 32631 (NORAD 62235) is a starlink constellation satellite (v2 mini) launched Dec 5, 2024 by SPXS of US. It operates in LEO, CIRCULAR orbit with a mass of 730.00 kg.

Starlink 32631について

説明を読み込み中...

次回通過

Passes for default location (London). Set your location on the main map for personalized predictions.

高度履歴

Loading altitude history...

軌道要素

1 62235U 24231T 26170.93601891 .00013359 00000-0 44105-3 0 9991
2 62235 53.1588 91.1572 0001215 90.9997 269.1144 15.31730163 87605
Epoch: Jun 19, 2026 • Age: 43 hours

現在のステータス

高度 474.0 km
速度 7.63 km/s
衛星直下点 42.70°N, 38.5°W
打ち上げ日 Dec 5, 2024
運用期間 1.5 years
タイプ internet

技術仕様

分類 Payload
質量 730.00 kg
乾燥質量 700.00 kg
総質量 730.00 kg
長さ 0.30 m
直径 4.10 m
スパン 29.00 m
形状 Box + pan
製造者 SPXS
バスタイプ Starlink V2M
フェーズステータス In Orbit
所有者/国 SPXS/US

Most Searched